Zurück zum Katalog

THOR ABLESTAR DEB

AktivLEO
NORAD 5785·DEBRIS·🇺🇸 United States

Gestartet Jun 29, 1961 von Cape Canaveral Space Force Station

Loading…

Nächste Überflüge (nächste 24 Stunden)

TLE

AktuellSource: Space-Track

Epoche: Sep 14, 2026, 05:00 UTC

1 05785U 61015JZ  26257.20862874  .00000277  00000-0  29388-3 0  9996
2 05785  65.6400 168.5435 0147234 288.7723  69.7417 13.84869617298341

Verfolge THOR ABLESTAR DEB in Echtzeit mit AllMySat

Download on the App Store